TimeEDT,TemperatureF,Dew PointF,Humidity,Sea Level PressureIn,VisibilityMPH,Wind Direction,Wind SpeedMPH,Gust SpeedMPH,PrecipitationIn,Events,Conditions,WindDirDegrees,DateUTC
12:15 AM,30.2,19.4,64,30.10,10.0,SE,9.2,-,N/A,,Clear,130,2013-03-31 04:15:00
12:35 AM,30.2,19.4,64,30.10,10.0,SE,9.2,-,N/A,,Clear,140,2013-03-31 04:35:00
12:55 AM,28.4,19.4,69,30.09,10.0,SSE,5.8,-,N/A,,Clear,150,2013-03-31 04:55:00
1:15 AM,30.2,19.4,64,30.09,10.0,SE,8.1,-,N/A,,Clear,140,2013-03-31 05:15:00
1:35 AM,30.2,19.4,64,30.09,10.0,ESE,12.7,-,N/A,,Clear,120,2013-03-31 05:35:00
1:55 AM,30.2,19.4,64,30.10,10.0,SE,8.1,-,N/A,,Clear,130,2013-03-31 05:55:00
2:15 AM,28.4,19.4,69,30.10,10.0,SE,6.9,-,N/A,,Clear,140,2013-03-31 06:15:00
2:35 AM,28.4,19.4,69,30.09,10.0,SE,6.9,-,N/A,,Clear,140,2013-03-31 06:35:00
2:55 AM,28.4,19.4,69,30.09,10.0,SE,6.9,-,N/A,,Clear,140,2013-03-31 06:55:00
3:15 AM,28.4,19.4,69,30.08,10.0,SSE,8.1,-,N/A,,Clear,150,2013-03-31 07:15:00
3:35 AM,28.4,19.4,69,30.08,10.0,ESE,12.7,-,N/A,,Clear,120,2013-03-31 07:35:00
4:35 AM,28.4,17.6,64,30.08,10.0,SE,8.1,-,N/A,,Clear,140,2013-03-31 08:35:00
4:55 AM,28.4,17.6,64,30.08,10.0,SE,5.8,-,N/A,,Clear,130,2013-03-31 08:55:00
5:15 AM,26.6,17.6,69,30.08,10.0,ESE,10.4,-,N/A,,Clear,120,2013-03-31 09:15:00
5:35 AM,28.4,17.6,64,30.06,10.0,SE,12.7,-,N/A,,Clear,130,2013-03-31 09:35:00
5:55 AM,26.6,17.6,69,30.06,10.0,SE,8.1,-,N/A,,Clear,130,2013-03-31 09:55:00
6:15 AM,28.4,17.6,64,30.06,10.0,SSE,8.1,-,N/A,,Clear,150,2013-03-31 10:15:00
6:35 AM,26.6,17.6,69,30.05,10.0,SE,10.4,-,N/A,,Clear,140,2013-03-31 10:35:00
6:55 AM,28.4,17.6,64,30.06,10.0,SE,4.6,-,N/A,,Clear,140,2013-03-31 10:55:00
7:35 AM,30.2,17.6,60,30.06,10.0,SSE,8.1,-,N/A,,Clear,150,2013-03-31 11:35:00
7:55 AM,30.2,19.4,64,30.05,10.0,SSE,6.9,-,N/A,,Clear,150,2013-03-31 11:55:00
8:15 AM,30.2,19.4,64,30.04,10.0,SSE,4.6,-,N/A,,Clear,150,2013-03-31 12:15:00
8:35 AM,33.8,19.4,56,30.04,10.0,Calm,Calm,-,N/A,,Clear,0,2013-03-31 12:35:00
8:55 AM,35.6,21.2,56,30.03,10.0,South,4.6,-,N/A,,Clear,170,2013-03-31 12:55:00
9:15 AM,37.4,23.0,56,30.03,10.0,South,4.6,-,N/A,,Clear,170,2013-03-31 13:15:00
9:35 AM,42.8,19.4,39,30.02,10.0,South,4.6,-,N/A,,Clear,190,2013-03-31 13:35:00
9:55 AM,44.6,19.4,37,30.01,10.0,South,3.5,-,N/A,,Clear,190,2013-03-31 13:55:00
10:15 AM,46.4,19.4,34,30.01,10.0,SSE,4.6,-,N/A,,Clear,160,2013-03-31 14:15:00
10:35 AM,48.2,19.4,32,30.00,10.0,South,10.4,-,N/A,,Clear,170,2013-03-31 14:35:00
10:55 AM,48.2,19.4,32,30.00,10.0,SSW,6.9,-,N/A,,Clear,210,2013-03-31 14:55:00
11:15 AM,51.8,19.4,28,29.99,10.0,South,10.4,16.1,N/A,,Clear,190,2013-03-31 15:15:00
11:35 AM,51.8,17.6,26,29.98,10.0,SSE,15.0,19.6,N/A,,Clear,160,2013-03-31 15:35:00
11:55 AM,53.6,17.6,24,29.97,10.0,South,12.7,21.9,N/A,,Clear,180,2013-03-31 15:55:00
12:15 PM,53.6,17.6,24,29.96,10.0,SSE,15.0,23.0,N/A,,Clear,160,2013-03-31 16:15:00
12:35 PM,53.6,17.6,24,29.95,10.0,SSE,15.0,20.7,N/A,,Clear,160,2013-03-31 16:35:00
12:55 PM,53.6,17.6,24,29.94,10.0,SSE,13.8,19.6,N/A,,Clear,150,2013-03-31 16:55:00
1:15 PM,53.6,17.6,24,29.93,10.0,South,13.8,20.7,N/A,,Clear,180,2013-03-31 17:15:00
1:35 PM,53.6,17.6,24,29.92,10.0,South,13.8,20.7,N/A,,Mostly Cloudy,170,2013-03-31 17:35:00
1:55 PM,53.6,19.4,26,29.91,10.0,South,12.7,18.4,N/A,,Scattered Clouds,190,2013-03-31 17:55:00
2:35 PM,53.6,19.4,26,29.89,10.0,South,12.7,18.4,N/A,,Clear,180,2013-03-31 18:35:00
2:55 PM,53.6,19.4,26,29.88,10.0,South,12.7,16.1,N/A,,Clear,190,2013-03-31 18:55:00
3:15 PM,53.6,19.4,26,29.87,10.0,South,13.8,21.9,N/A,,Mostly Cloudy,180,2013-03-31 19:15:00
3:35 PM,53.6,19.4,26,29.86,10.0,South,12.7,18.4,N/A,,Overcast,190,2013-03-31 19:35:00
3:55 PM,53.6,19.4,26,29.85,10.0,SE,15.0,19.6,N/A,,Overcast,140,2013-03-31 19:55:00
4:15 PM,53.6,19.4,26,29.84,10.0,SE,16.1,23.0,N/A,,Overcast,140,2013-03-31 20:15:00
4:35 PM,53.6,21.2,28,29.83,10.0,SE,17.3,-,N/A,,Overcast,130,2013-03-31 20:35:00
4:55 PM,53.6,21.2,28,29.82,10.0,SSE,12.7,26.5,N/A,,Overcast,150,2013-03-31 20:55:00
5:15 PM,53.6,21.2,28,29.82,10.0,South,15.0,27.6,N/A,,Overcast,180,2013-03-31 21:15:00
5:35 PM,53.6,21.2,28,29.82,10.0,South,19.6,26.5,N/A,,Overcast,180,2013-03-31 21:35:00
5:55 PM,51.8,23.0,33,29.82,10.0,SSW,18.4,24.2,N/A,,Overcast,200,2013-03-31 21:55:00
6:15 PM,50.0,26.6,40,29.83,10.0,South,17.3,23.0,N/A,,Overcast,190,2013-03-31 22:15:00
6:35 PM,48.2,28.4,46,29.83,10.0,South,8.1,-,N/A,,Overcast,180,2013-03-31 22:35:00
6:55 PM,48.2,26.6,43,29.82,10.0,South,15.0,-,N/A,,Overcast,170,2013-03-31 22:55:00
7:15 PM,48.2,24.8,40,29.81,10.0,SSE,13.8,-,N/A,,Overcast,160,2013-03-31 23:15:00
7:35 PM,48.2,26.6,43,29.81,10.0,South,18.4,27.6,N/A,,Overcast,170,2013-03-31 23:35:00
7:55 PM,46.4,28.4,50,29.81,10.0,South,11.5,21.9,N/A,,Overcast,170,2013-03-31 23:55:00
8:15 PM,44.6,30.2,57,29.82,10.0,SSE,16.1,20.7,N/A,,Overcast,150,2013-04-01 00:15:00
8:35 PM,42.8,33.8,70,29.82,10.0,SE,16.1,-,N/A,,Overcast,140,2013-04-01 00:35:00
9:15 PM,39.2,35.6,87,29.81,10.0,South,6.9,-,N/A,,Overcast,190,2013-04-01 01:15:00
9:35 PM,39.2,35.6,87,29.80,10.0,SE,11.5,16.1,N/A,,Overcast,130,2013-04-01 01:35:00
10:15 PM,39.2,33.8,81,29.79,10.0,South,8.1,-,N/A,,Mostly Cloudy,170,2013-04-01 02:15:00
10:35 PM,39.2,35.6,87,29.77,10.0,South,5.8,-,0.01,,Overcast,190,2013-04-01 02:35:00
11:15 PM,39.2,35.6,87,29.73,10.0,SSE,10.4,-,0.01,,Overcast,150,2013-04-01 03:15:00
11:35 PM,39.2,35.6,87,29.74,10.0,SSE,10.4,18.4,0.01,,Overcast,160,2013-04-01 03:35:00
11:55 PM,39.2,35.6,87,29.73,10.0,SSE,6.9,-,0.03,,Overcast,150,2013-04-01 03:55:00